Location: Canet
(43.3261°N, 5.3723°E)
Time: 20:27:19
(UTC+00:00)

Envisat - Visible Passes

Search period start: 26 September 2021 00:00
Search period end: 06 October 2021 00:00
Orbit: 764 x 766 km, 98.2° (Epoch: 26 September)

Date Brightness Start Highest point End Pass type
(mag) Time Alt. Az. Time Alt. Az. Time Alt. Az.
26 Sep 6.1 03:25:21 10° ENE 03:27:27 12° E 03:29:32 10° ESE visible
26 Sep 3.0 05:01:58 10° N 05:07:04 80° WNW 05:12:08 10° SSW visible
27 Sep 4.1 04:25:16 10° NNE 04:30:11 47° E 04:35:03 10° S visible
28 Sep 5.5 03:49:11 10° NE 03:53:05 22° E 03:56:57 10° SE visible
29 Sep 3.2 04:50:27 10° NNE 04:55:33 82° E 05:00:39 10° S visible
30 Sep 4.6 04:13:54 10° NNE 04:18:36 37° E 04:23:17 10° SSE visible
01 Oct 5.9 03:38:08 10° NE 03:41:27 17° E 03:44:45 10° SE visible
02 Oct 3.5 04:38:58 10° NNE 04:44:02 64° ESE 04:49:04 10° S visible
03 Oct 5.0 04:02:35 10° NE 04:07:01 29° E 04:11:25 10° SSE visible
04 Oct 6.0 03:27:20 10° ENE 03:29:48 13° E 03:32:15 10° ESE visible
04 Oct 3.0 05:04:17 10° N 05:09:21 75° WNW 05:14:25 10° SSW visible
05 Oct 4.0 04:27:32 10° NNE 04:32:29 50° E 04:37:24 10° S visible
